Погода в Почтовом

Россия / Архангельская область     63°09′27″N   42°01′02″E
темп.,
°C
ветер,
м/с
пор.,
м/с
влажн.,
%
обл.,
%
осадки,
мм/ч
давл.,
гПа
погр.,
м
25 июля, вс
вс2500:00+10зюз2566100 0.0 1011129
03:00+8з237817 0.0 101160
06:00+11зюз246673 0.0 1011165
09:00+14зюз275864 0.0 1012496
12:00+16зюз3854100 0.0 10121128
15:00+18з584982 0.0 10131619
18:00+16сз3675100 0.8 1013307
21:00+13зсз249392 1.9 1014102
26 июля, пн
пн2600:00+11ссз229617 0.1 101534
03:00+9ссв009237 0.1 101510
06:00+11зюз119697 0.1 101532
09:00+12зюз3996100 0.6 1014499
12:00+15сз588728 0.9 1015951
15:00+18ссз594995 1.4 10151658
18:00+16ссз59490 0.0 10171368
21:00+11ссз49625 0.0 1018587
27 июля, вт
вт2700:00+6сз28853 0.0 1019183
03:00+6зсз3985100 0.0 1020224
06:00+10зсз3107041 0.0 1020438
09:00+15сз47550 0.0 10191001
12:00+19сз584221 0.0 10181968
15:00+20сз58375 0.0 10182075
18:00+19ссз47426 0.0 10171334
21:00+12ссз23685 0.0 101750
28 июля, ср
ср2800:00+8сз228616 0.0 101723
03:00+6зсз119451 0.0 101610
06:00+11зюз1272100 0.0 1015150
09:00+12зюз2588100 1.3 1012269
12:00+13ю388623 3.9 1010397
15:00+21юз256815 4.9 1006731
18:00+20ссв347716 1.2 1005272
21:00+15сз24900 1.3 100579
29 июля, чт
чт2900:00+11св25989 0.0 100597
03:00+10ссв229854 0.0 100543
06:00+12всв2490100 0.0 1004142
09:00+16юв357797 0.0 1003408
12:00+17юв477293 0.1 1002516
15:00+19юв3481100 1.5 1000451
18:00+18юв4893100 2.0 999394
21:00+16ююв2496100 3.5 997100